This demonstration page uses our WeatherBlox Daily Observations layout. Learn more.

Left ArrowRight Arrow

40.92945, -100.16068

Hourly Observations for November 13, 2018

Temp ( °F °C ) Dew Point ( °F °C ) Humidity (%) Winds ( mph kmh ) Pressure ( in mb ) Visibility ( mi km ) Precip ( " mm )
12:15 am 00:15 Clear 10 -12 7 -14.1 85 85 Calm 30.71 1040 10 16.0934 0 0
12:35 am 00:35 Clear 10 -12.4 6 -14.6 84 84 Calm 30.74 1041 10 16.0934 0 0
12:55 am 00:55 Clear 9 -12.6 5 -14.8 84 84 NW 3 6 30.74 1041 10 16.0934 0 0
1:15 am 01:15 Clear 10 -12.2 6 -14.6 83 83 Calm 30.74 1041 10 16.0934 0 0
1:35 am 01:35 Clear 10 -12.3 6 -14.6 83 83 Calm 30.68 1039 10 16.0934 0 0
1:55 am 01:55 Clear 9 -12.6 5 -15 82 82 Calm 30.71 1040 10 16.0934 0 0
2:15 am 02:15 Clear 10 -12.2 6 -14.5 83 83 NNW 3 6 30.68 1039 10 16.0934 0 0
2:35 am 02:35 Clear 10 -12.2 6 -14.5 83 83 NNW 5 7 30.68 1039 10 16.0934 0 0
2:55 am 02:55 Clear 10 -12.1 6 -14.3 84 84 NNW 3 6 30.65 1038 10 16.0934 0 0
3:15 am 03:15 Clear 10 -12.3 6 -14.4 85 85 NNW 5 7 30.65 1038 10 16.0934 0 0
3:35 am 03:35 Clear 10 -12.5 6 -14.7 84 84 NW 3 6 30.65 1038 10 16.0934 0 0
3:55 am 03:55 Clear 11 -11.9 6 -14.2 83 83 NW 3 6 30.65 1038 10 16.0934 0 0
4:15 am 04:15 Clear 10 -12.1 6 -14.6 82 82 WNW 3 6 30.65 1038 10 16.0934 0 0
4:35 am 04:35 Clear 10 -12 6 -14.5 82 82 Calm 30.65 1038 10 16.0934 0 0
4:55 am 04:55 Clear 11 -11.5 7 -13.9 83 83 WNW 3 6 30.65 1038 10 16.0934 0 0
5:15 am 05:15 Clear 11 -11.8 7 -14.1 83 83 WNW 5 7 30.65 1038 10 16.0934 0 0
5:35 am 05:35 Clear 12 -11 8 -13.5 82 82 WNW 6 9 30.65 1038 10 16.0934 0 0
5:55 am 05:55 Clear 12 -10.9 8 -13.5 81 81 WNW 7 11 30.65 1038 10 16.0934 0 0
6:15 am 06:15 Clear 12 -11 8 -13.6 81 81 WNW 7 11 30.65 1038 10 16.0934 0 0
6:35 am 06:35 Clear 12 -11 7 -13.7 81 81 W 3 6 30.62 1037 10 16.0934 0 0
6:55 am 06:55 Clear 12 -11.1 8 -13.6 82 82 W 6 9 30.65 1038 10 16.0934 0 0
7:15 am 07:15 Clear 12 -11.2 8 -13.6 83 83 WNW 7 11 30.65 1038 10 16.0934 0 0
7:35 am 07:35 Sunny 13 -10.5 9 -13 82 82 WNW 9 15 30.65 1038 10 16.0934 0 0
7:55 am 07:55 Sunny 15 -9.3 10 -12 81 81 WNW 10 17 30.62 1037 10 16.0934 0 0
8:15 am 08:15 Sunny 17 -8.5 12 -11.3 80 80 WNW 10 17 30.62 1037 10 16.0934 0 0
8:35 am 08:35 Sunny 19 -7.4 13 -10.4 79 79 WNW 9 15 30.62 1037 10 16.0934 0 0
8:55 am 08:55 Sunny 21 -6.1 16 -9.1 80 80 WNW 9 15 30.59 1036 10 16.0934 0 0
9:15 am 09:15 Sunny 24 -4.6 18 -7.9 78 78 WNW 8 13 30.62 1037 10 16.0934 0 0
9:35 am 09:35 Sunny 27 -3 19 -7.2 73 73 WNW 9 15 30.59 1036 10 16.0934 0 0
9:55 am 09:55 Sunny 28 -2 19 -7.1 68 68 NW 7 11 30.59 1036 10 16.0934 0 0
10:15 am 10:15 Sunny 31 -0.7 20 -6.5 65 65 WNW 7 11 30.56 1035 10 16.0934 0 0
10:35 am 10:35 Sunny 32 0 20 -6.5 62 62 W 7 11 30.56 1035 10 16.0934 0 0
10:55 am 10:55 Sunny 34 1 20 -6.9 56 56 W 6 9 30.53 1034 10 16.0934 0 0
11:15 am 11:15 Sunny 36 2.3 19 -7.5 49 49 W 6 9 30.5 1033 10 16.0934 0 0
11:35 am 11:35 Sunny 38 3.5 18 -7.8 44 44 WNW 7 11 30.5 1033 10 16.0934 0 0
11:55 am 11:55 Sunny 40 4.2 17 -8.3 40 40 W 5 7 30.5 1033 10 16.0934 0 0
12:15 pm 12:15 Sunny 41 5.2 15 -9.4 34 34 W 6 9 30.48 1032 10 16.0934 0 0
12:35 pm 12:35 Sunny 43 5.9 15 -9.4 33 33 W 6 9 30.45 1031 10 16.0934 0 0
12:55 pm 12:55 Sunny 44 6.7 15 -9.7 30 30 W 8 13 30.45 1031 10 16.0934 0 0
1:15 pm 13:15 Sunny 45 7.1 13 -10.4 28 28 NW 8 13 30.45 1031 10 16.0934 0 0
1:35 pm 13:35 Sunny 45 7.3 13 -10.3 28 28 WNW 8 13 30.42 1030 10 16.0934 0 0
1:55 pm 13:55 Sunny 46 7.8 14 -9.8 28 28 W 6 9 30.42 1030 10 16.0934 0 0
2:15 pm 14:15 Sunny 47 8.2 15 -9.6 27 27 WNW 7 11 30.42 1030 10 16.0934 0 0
2:35 pm 14:35 Sunny 47 8.3 15 -9.7 27 27 W 9 15 30.42 1030 10 16.0934 0 0
2:55 pm 14:55 Sunny 47 8.5 15 -9.6 27 27 W 6 9 30.42 1030 10 16.0934 0 0
3:15 pm 15:15 Sunny 48 8.7 15 -9.6 27 27 WNW 6 9 30.42 1030 10 16.0934 0 0
3:35 pm 15:35 Sunny 48 8.9 15 -9.4 27 27 W 6 9 30.42 1030 10 16.0934 0 0
3:55 pm 15:55 Sunny 48 8.9 15 -9.5 26 26 WNW 6 9 30.39 1029 10 16.0934 0 0
4:15 pm 16:15 Mostly Cloudy 47 8.3 16 -9 29 29 W 6 9 30.39 1029 10 16.0934 0 0
4:35 pm 16:35 Mostly Cloudy 46 8 17 -8.6 30 30 W 6 9 30.39 1029 10 16.0934 0 0
4:55 pm 16:55 Sunny 43 6.2 17 -8.2 35 35 WSW 6 9 30.42 1030 10 16.0934 0 0
5:15 pm 17:15 Sunny 40 4.7 17 -8.6 38 38 SW 6 9 30.42 1030 10 16.0934 0 0
5:35 pm 17:35 Clear 37 2.6 17 -8.5 44 44 WSW 6 9 30.45 1031 10 16.0934 0 0
5:55 pm 17:55 Clear 35 1.8 17 -8.6 46 46 WSW 5 7 30.45 1031 10 16.0934 0 0
6:15 pm 18:15 Clear 34 1 18 -8 51 51 SSW 6 9 30.45 1031 10 16.0934 0 0
6:35 pm 18:35 Clear 32 0 19 -7.4 58 58 SSW 3 6 30.48 1032 10 16.0934 0 0
6:55 pm 18:55 Clear 34 0.9 21 -6 60 60 SW 5 7 30.45 1031 10 16.0934 0 0
7:15 pm 19:15 Mostly Cloudy 32 0 21 -6 64 64 Calm 30.48 1032 10 16.0934 0 0
7:35 pm 19:35 Cloudy 33 0.5 23 -5 67 67 Calm 30.48 1032 10 16.0934 0 0
7:55 pm 19:55 Cloudy 34 1.3 24 -4.6 65 65 Calm 30.45 1031 10 16.0934 0 0
8:15 pm 20:15 Mostly Cloudy 31 -0.5 23 -5 72 72 Calm 30.48 1032 10 16.0934 0 0
8:35 pm 20:35 Partly Cloudy 29 -1.5 22 -5.4 75 75 Calm 30.48 1032 10 16.0934 0 0
8:55 pm 20:55 Clear 30 -1.2 22 -5.4 73 73 Calm 30.48 1032 10 16.0934 0 0
9:15 pm 21:15 Clear 26 -3.2 20 -6.5 78 78 Calm 30.5 1033 10 16.0934 0 0
9:35 pm 21:35 Clear 25 -4 20 -6.8 81 81 Calm 30.5 1033 10 16.0934 0 0
9:55 pm 21:55 Clear 25 -3.7 20 -6.6 81 81 Calm 30.53 1034 10 16.0934 0 0
10:15 pm 22:15 Clear 26 -3.3 21 -6 82 82 Calm 30.53 1034 10 16.0934 0 0
10:35 pm 22:35 Clear 26 -3.3 19 -7 76 76 Calm 30.5 1033 10 16.0934 0 0
10:55 pm 22:55 Clear 28 -2.1 22 -5.3 79 79 Calm 30.48 1032 10 16.0934 0 0
11:15 pm 23:15 Clear 26 -3.2 21 -6.2 80 80 Calm 30.5 1033 10 16.0934 0 0
11:35 pm 23:35 Clear 25 -3.7 20 -6.9 79 79 Calm 30.5 1033 10 16.0934 0 0
11:55 pm 23:55 Clear 23 -5.2 19 -7.4 85 85 Calm 30.53 1034 10 16.0934 0 0

Powered by AerisWeather